COSMOS 2520 (42907 NORAD) Tracking and Keplerian Element Data

This shows tracking and keplerian element data for the satellite.

Feedback or suggestion? Click here.




ElementValue
Catalog42907
NameCOSMOS 2520
Epoch Orbit2351
Epoch Day12.85813166
Epoch Year2024
RAAN107.7676
Inclination0.0366
Eccentricity0.0001019
Argument of Perigee182.7787
Mean Anonmoly175.1852
Mean Motion1.0026863
Decay Rate1.46E-06
L11 42907U 17046A 24012.85813166 .00000146 00000+0 00000+0 0 9996
L22 42907 0.0366 107.7676 0001019 182.7787 175.1852 1.00268630 23510



Live tracking and technical data element details for COSMOS 2520 (NORAD 42907). COSMOS 2520 can be tracked NOW for your location showing map with azimuth and elevation plus other details from your city location.







IsCatalogInMostPopularTable: catalog: 42907, numindb: 716
Update: records affected: 1



GetName: 42907 COSMOS 2520

Hit Count: updated at: Fri, 19 Apr 2024 11:57:52 GMT